Content
SEND FEEDBACK

Daily
Averages
Monthly
Summary
United States of America

ST. LOUIS, MISSOURI


Home > North America > United States > Missouri
Elevation: 163 meters     Latitude: 38 45N     Longitude: 090 22W

WEATHER
 
SELECT A DAY
Number of Records: 200,626;   Date Range: 1/1/95 - 11/26/14
 
SHARE

PRINT THIS DATA

[ ← Previous Day ]
WEATHER ALMANAC - 14 JUNE, 2013
[ Next Day → ]
[ °F ]   °C
Weather ElementAverageHighLow
Temperature22.7 °C28.9 °C (2:54 pm)15 °C (5:54 am)
Dewpoint15.3 °C17.8 °C (8:54 pm)13.9 °C (5:54 am)
Humidity66 %93 % (2:54 am)41 % (2:54 pm)
Barometer1016.6 hPa1018.3 hPa (8:54 am)1014.6 hPa (4:54 pm)
Wind Speed5.8 km/h11.1 km/h (7:54 am)
Weather ElementAverage
Visibility15.8 km
Wind DirectionENE (83.9 °)

Weather ElementTotal
Precipitation---
Cooling Degree Days3.6 (Base 18.3)
Growing Degree Days11.9 (Base 10)
Averaged from 23 records on 14 June, 2013
WEATHER CONDITIONS BREAKOUT
WIND DIRECTION BREAKOUT
WEATHER BY HOUR - 14 JUNE, 2013
[ °F ]   °C
Local TimeTemperatureDewpointHumidityBarometerVisibilityWind DirectionWind SpeedGust SpeedPrecipitationEventsConditions
1:54 AM17.2 °C15 °C87 %1015.9 hPa16.1 kmCalmClear
2:54 AM16.7 °C15.6 °C93 %1015.9 hPa16.1 kmCalmClear
3:54 AM16.1 °C14.4 °C90 %1015.9 hPa16.1 kmCalmClear
4:54 AM15.6 °C14.4 °C93 %1016.3 hPa12.9 kmCalmClear
5:54 AM15 °C13.9 °C93 %1016.9 hPa14.5 kmCalmMostly Cloudy
6:54 AM17.2 °C16.1 °C93 %1017.3 hPa14.5 kmCalmScattered Clouds
7:54 AM20 °C16.1 °C78 %1017.9 hPa16.1 kmEast (90°)11.1 km/hClear
8:54 AM22.2 °C14.4 °C61 %1018.3 hPa16.1 kmESE (110°)11.1 km/hClear
9:54 AM23.9 °C14.4 °C55 %1018.3 hPa16.1 kmESE (110°)11.1 km/hClear
10:54 AM25.6 °C15 °C52 %1017.6 hPa16.1 kmSE (140°)11.1 km/hClear
11:54 AM26.1 °C13.9 °C47 %1017.6 hPa16.1 kmSouth (170°)11.1 km/hScattered Clouds
12:54 PM26.7 °C14.4 °C47 %1017.3 hPa16.1 kmSSE (150°)7.4 km/hMostly Cloudy
1:54 PM27.8 °C14.4 °C44 %1017.6 hPa16.1 kmCalmMostly Cloudy
2:54 PM28.9 °C14.4 °C41 %1018.3 hPa16.1 kmWest (280°)11.1 km/hClear
3:54 PM28.3 °C15 °C44 %1017.3 hPa16.1 kmENE (60°)9.3 km/hMostly Cloudy
4:54 PM27.8 °C13.9 °C42 %1014.6 hPa16.1 kmVariable11.1 km/hMostly Cloudy
5:54 PM28.3 °C15.6 °C46 %1014.9 hPa16.1 kmSouth (190°)11.1 km/hMostly Cloudy
6:54 PM27.2 °C16.1 °C50 %1014.6 hPa16.1 kmSSE (160°)5.6 km/hClear
7:54 PM24.4 °C16.7 °C62 %1014.6 hPa16.1 kmSSE (150°)7.4 km/hMostly Cloudy
8:54 PM22.2 °C17.8 °C76 %1015.6 hPa16.1 kmCalmClear
9:54 PM22.2 °C16.7 °C71 %1015.2 hPa16.1 kmSSE (160°)7.4 km/hClear
10:54 PM20.6 °C17.2 °C81 %1016.3 hPa16.1 kmCalmClear
11:54 PM21.1 °C16.1 °C73 %1015.2 hPa16.1 kmSSE (160°)7.4 km/hPartly Cloudy
Hourly data recorded from KSUS, located 0 kilometers away from St. Louis, Missouri







STORIES FROM OUR PARTNERS